Regional Weather Roundup
Issued by NWS Charleston, WV

Home | Current Version | Previous Version | Graphics & Text | Print | Product List | Glossary On
Versions: 1 2 3 4 5 6 7 8 9 10 11 12 13 14 15 16 17 18 19 20 21 22 23 24 25 26 27 28 29 30 31 32 33 34 35 36 37 38 39 40 41 42 43 44 45 46 47 48 49 50
000
ASUS41 KRLX 131510
RWRRLX
West Virginia Regional Weather Roundup
National Weather Service Charleston WV
1100 AM EDT SUN JUL 13 2014

Note: "fair" indicates few or no clouds below 12,000 feet with no
significant weather and/or obstructions to visibility.

WVZ003-131600-
Northern Panhandle of West Virginia

CITY           SKY/WX    TMP DP  RH WIND       PRES   REMARKS
WHEELING       CLOUDY    80  65  59 SW17G23   29.98F
$$

WVZ009-131600-
Northwest West Virginia

CITY           SKY/WX    TMP DP  RH WIND       PRES   REMARKS
PARKERSBURG    CLOUDY    81  67  62 SW9       30.04F
$$

WVZ006-131600-
Western West Virginia

CITY           SKY/WX    TMP DP  RH WIND       PRES   REMARKS
HUNTINGTON     CLOUDY    81  68  64 S9        30.05F
$$

WVZ015-131600-
West Central West Virginia

CITY           SKY/WX    TMP DP  RH WIND       PRES   REMARKS
CHARLESTON     PTSUNNY   84  67  56 SW9       30.06F
$$

WVZ031-131600-
North Central West Virginia

CITY           SKY/WX    TMP DP  RH WIND       PRES   REMARKS
CLARKSBURG     PTSUNNY   82  63  52 SW12G22   30.05F
MORGANTOWN     PTSUNNY   80  62  54 S9        30.05F
$$

WVZ035-042-045-131600-
South Central West Virginia

CITY           SKY/WX    TMP DP  RH WIND       PRES   REMARKS
BECKLEY        MOSUNNY   80  66  62 W8        30.19F
BLUEFIELD      PTSUNNY   79  65  62 W10       30.23S
LEWISBURG      MOSUNNY   82  64  55 SW9       30.17F
$$

WVZ047-131600-
Northern Mountains of West Virginia

CITY           SKY/WX    TMP DP  RH WIND       PRES   REMARKS
ELKINS         CLOUDY    79  64  60 VRB3      30.13S
$$

WVZ052-131600-
Eastern Panhandle of West Virginia

CITY           SKY/WX    TMP DP  RH WIND       PRES   REMARKS
MARTINSBURG    CLOUDY    84  65  52 SW9       30.03F
PETERSBURG     CLOUDY    79  65  61 CALM      30.06S
$$


USA.gov is the U.S. government's official web portal to all federal, state and local government web resources and services.